{"data":{"norad_id":65104,"epoch":"2026-05-25T01:35:36.792384Z","epoch_age_seconds":62640,"freshness":"FRESH","line1":"1 65104U 25167AC  26145.06639806  .00064563  00000+0  14772-2 0  9999","line2":"2 65104  53.1607  29.0391 0000748  99.9951 260.1140 15.42230112 45201","mean_motion":15.42230112,"eccentricity":7.48e-5,"inclination_deg":53.1607,"raan_deg":29.0391,"arg_perigee_deg":99.9951,"mean_anomaly_deg":260.114,"bstar":0.0014772,"rev_number":4520,"period_min":93.371280251595,"perigee_km":439.01905717904,"apogee_km":440.03898001543,"semimajor_km":6817.6660185972,"source":"CELESTRAK","updated_at":"2026-05-25T13:38:20.687995Z"}}